DW3248 Amsterdam NL current weather conditions

sailwx.info

Wind from 208 at 3 knots gusting 5

Air temperature 18.9° C
Dewpoint 16.5° C

Last reported at 2018-Sep-19 09:01 UTC.
Time now 2018-Sep-19 09:26 UTC

Location: N 52°18' E 004°58'.
View on Google Maps.

See reports from other nearby stations

  
Tides and Currents Weather Stations Pressure Air Temp Water Temp Dewpoint Dewpoint Depression Visibility Wind Speed Wind Dir Waves Ship Positions
date/time (UTC)wind fromknots sea level pressurealtimeterstation pressurevisibilityair tempwater tempwave heightnotes
2018-Sep-19 09:06 203 2 gusting 7 18.9
2018-Sep-19 09:01 208 3 gusting 5 18.9
2018-Sep-19 08:56 207 3 gusting 7 18.9
2018-Sep-19 08:51 194 2 gusting 7 18.9
2018-Sep-19 08:46 191 2 gusting 5 18.9
2018-Sep-19 08:41 206 2 gusting 6 18.3
2018-Sep-19 08:36 210 3 gusting 4 18.3
2018-Sep-19 08:31 218 4 gusting 7 17.8
2018-Sep-19 08:26 220 3 gusting 9 18.3
2018-Sep-19 08:21 209 3 gusting 7 17.8
2018-Sep-19 08:16 207 3 gusting 6 17.8
2018-Sep-19 08:11 196 3 gusting 7 17.8
2018-Sep-19 08:06 190 3 gusting 6 17.8
2018-Sep-19 08:01 200 4 gusting 6 17.8
2018-Sep-19 07:56 198 3 gusting 7 17.2
2018-Sep-19 07:51 191 3 gusting 7 17.2
2018-Sep-19 07:46 199 3 gusting 6 17.2
2018-Sep-19 07:41 203 3 gusting 6 16.7
2018-Sep-19 07:36 202 2 gusting 6 16.7
2018-Sep-19 07:33 197 2 gusting 6 16.7
2018-Sep-19 07:26 181 2 gusting 6 16.7
2018-Sep-19 07:21 199 2 gusting 6 16.7
2018-Sep-19 07:16 191 3 gusting 6 16.7
2018-Sep-19 07:11 184 2 gusting 5 16.7
2018-Sep-19 07:06 197 2 gusting 6 16.7
2018-Sep-19 07:01 199 2 gusting 6 16.7
2018-Sep-19 06:56 191 2 gusting 6 16.7
2018-Sep-19 06:51 192 2 gusting 6 16.7
2018-Sep-19 06:46 186 2 gusting 4 16.1
2018-Sep-19 06:41 184 2 gusting 6 16.1
2018-Sep-19 06:36 178 2 gusting 7 16.1
2018-Sep-19 06:31 174 2 gusting 5 16.1
2018-Sep-19 06:26 171 1 gusting 4 15.6
2018-Sep-19 06:21 166 0 gusting 3 15.6
2018-Sep-19 06:16 169 0 gusting 3 15.6
2018-Sep-19 06:11 173 0 gusting 1 15.6
2018-Sep-19 06:06 174 0 gusting 1 15.6
2018-Sep-19 06:01 172 0 gusting 1 15.6
2018-Sep-19 05:56 162 1 gusting 2 15.6
2018-Sep-19 05:51 165 1 gusting 3 15.6
2018-Sep-19 05:46 176 1 gusting 4 15.6
2018-Sep-19 05:41 181 1 gusting 3 15.6
2018-Sep-19 05:36 183 1 gusting 3 15.6
2018-Sep-19 05:31 175 0 gusting 6 15.6
2018-Sep-19 05:26 182 0 gusting 3 15.6
2018-Sep-19 05:23 190 1 gusting 3 15.6
2018-Sep-19 05:16 183 1 gusting 3 15.6
2018-Sep-19 05:11 183 0 gusting 3 15.6
2018-Sep-19 05:06 179 1 gusting 4 15.6
2018-Sep-19 05:03 168 1 gusting 2 15.6
2018-Sep-19 04:56 174 1 gusting 5 15.0
2018-Sep-19 04:51 180 1 gusting 4 15.0
2018-Sep-19 04:46 197 1 gusting 3 15.0
2018-Sep-19 04:41 184 1 gusting 3 15.0
2018-Sep-19 04:36 169 1 gusting 3 15.0
2018-Sep-19 04:31 180 1 gusting 2 15.0
2018-Sep-19 04:26 180 1 gusting 3 15.0
2018-Sep-19 04:21 182 1 gusting 3 15.0
2018-Sep-19 04:16 183 1 gusting 5 15.0
2018-Sep-19 04:11 183 1 gusting 3 15.0
2018-Sep-19 04:06 187 1 gusting 4 15.0
2018-Sep-19 04:01 179 1 gusting 3 15.0
2018-Sep-19 03:56 176 1 gusting 3 15.0
2018-Sep-19 03:51 184 0 gusting 2 15.0
2018-Sep-19 03:46 192 0 gusting 3 15.0
2018-Sep-19 03:41 192 0 gusting 2 15.0
2018-Sep-19 03:36 183 0 gusting 1 15.0
2018-Sep-19 03:31 175 0 gusting 2 15.0
2018-Sep-19 03:26 187 0 gusting 2 15.0
2018-Sep-19 03:21 187 0 gusting 3 15.0
2018-Sep-19 03:16 186 0 gusting 3 15.0
2018-Sep-19 03:11 191 0 gusting 3 15.0
2018-Sep-19 03:06 182 0 gusting 1 15.0
2018-Sep-19 03:01 182 0 gusting 3 15.0
2018-Sep-19 02:56 184 0 gusting 2 15.0
2018-Sep-19 02:51 188 0 gusting 4 15.0
2018-Sep-19 02:46 182 0 gusting 2 15.0
2018-Sep-19 02:41 186 0 gusting 3 15.0
2018-Sep-19 02:36 196 0 gusting 2 15.0
2018-Sep-19 02:31 186 0 gusting 1 15.0
2018-Sep-19 02:26 187 0 gusting 1 15.0
2018-Sep-19 02:21 183 0 gusting 2 15.0
2018-Sep-19 02:16 186 0 gusting 2 15.0
2018-Sep-19 02:11 192 0 gusting 3 15.0
2018-Sep-19 02:06 192 1 gusting 3 15.0
2018-Sep-19 02:01 182 1 gusting 3 15.0
2018-Sep-19 01:56 173 1 gusting 4 15.0
2018-Sep-19 01:51 176 1 gusting 3 15.0
2018-Sep-19 01:46 174 1 gusting 4 15.6
2018-Sep-19 01:41 175 1 gusting 5 15.6
2018-Sep-19 01:36 190 1 gusting 3 15.6
2018-Sep-19 01:31 202 1 gusting 3 15.6
2018-Sep-19 01:26 198 1 gusting 5 15.6
2018-Sep-19 01:21 194 1 gusting 3 15.6
2018-Sep-19 01:16 186 1 gusting 2 15.6
2018-Sep-19 01:11 178 1 gusting 4 15.6
2018-Sep-19 01:06 189 1 gusting 3 15.6
2018-Sep-19 01:01 196 1 gusting 2 16.1
2018-Sep-19 00:56 190 0 gusting 2 16.1
2018-Sep-19 00:51 175 0 gusting 3 16.1
2018-Sep-19 00:46 170 0 gusting 2 16.1
2018-Sep-19 00:41 183 0 gusting 3 16.1
2018-Sep-19 00:36 184 0 gusting 3 16.1
2018-Sep-19 00:31 177 0 gusting 1 16.1
2018-Sep-19 00:26 179 0 gusting 2 16.1
2018-Sep-19 00:21 184 0 gusting 2 16.1
2018-Sep-19 00:16 188 0 gusting 2 16.1
2018-Sep-19 00:11 197 0 gusting 2 16.1
2018-Sep-19 00:06 201 1 gusting 4 16.1
2018-Sep-19 00:01 208 1 gusting 2 16.7
2018-Sep-18 23:56 204 2 gusting 3 16.7
2018-Sep-18 23:51 194 2 gusting 4 16.7
2018-Sep-18 23:46 201 2 gusting 6 16.7
2018-Sep-18 23:41 215 1 gusting 6 16.7
2018-Sep-18 23:36 208 1 gusting 4 16.7
2018-Sep-18 23:31 191 1 gusting 4 16.7
2018-Sep-18 23:26 189 2 gusting 4 16.7
2018-Sep-18 23:21 191 2 gusting 5 16.7
2018-Sep-18 23:16 206 2 gusting 4 16.7
2018-Sep-18 23:11 219 2 gusting 4 16.7
2018-Sep-18 23:06 220 2 gusting 5 16.7
2018-Sep-18 23:01 213 1 gusting 5 16.7
2018-Sep-18 22:56 205 1 gusting 4 16.7
2018-Sep-18 22:51 209 1 gusting 4 16.7
2018-Sep-18 22:46 213 1 gusting 3 16.7
2018-Sep-18 22:41 209 0 gusting 3 16.7
2018-Sep-18 22:36 199 0 gusting 3 16.7
2018-Sep-18 22:31 197 0 gusting 2 16.7
2018-Sep-18 22:26 204 1 gusting 2 16.7
2018-Sep-18 22:21 206 1 gusting 4 16.7
2018-Sep-18 22:16 202 1 gusting 5 16.7
2018-Sep-18 22:11 206 1 gusting 3 16.7
2018-Sep-18 22:06 208 1 gusting 3 16.7
2018-Sep-18 22:01 200 0 gusting 5 16.7
2018-Sep-18 21:56 213 1 gusting 3 16.7
2018-Sep-18 21:51 217 1 gusting 2 16.7
2018-Sep-18 21:46 206 1 gusting 4 16.7
2018-Sep-18 21:41 203 1 gusting 4 16.7
2018-Sep-18 21:36 202 1 gusting 3 16.7
2018-Sep-18 21:31 199 2 gusting 2 17.2
2018-Sep-18 21:26 200 2 gusting 5 17.2
2018-Sep-18 21:21 213 2 gusting 5 17.2
2018-Sep-18 21:16 216 1 gusting 5 17.2
2018-Sep-18 21:11 214 2 gusting 5 17.2
2018-Sep-18 21:06 206 1 gusting 5 17.2
2018-Sep-18 21:01 196 1 gusting 6 17.2
2018-Sep-18 20:56 204 1 gusting 2 17.2
2018-Sep-18 20:51 209 1 gusting 4 17.2
2018-Sep-18 20:46 208 1 gusting 3 17.2
2018-Sep-18 20:41 212 1 gusting 3 17.2
2018-Sep-18 20:36 215 1 gusting 3 17.2
2018-Sep-18 20:31 215 2 gusting 4 17.2
2018-Sep-18 20:26 212 2 gusting 5 17.8
2018-Sep-18 20:21 207 2 gusting 4 17.8
2018-Sep-18 20:16 202 1 gusting 4 17.8
2018-Sep-18 20:11 205 1 gusting 4 17.8
2018-Sep-18 20:06 214 2 gusting 3 17.8
2018-Sep-18 20:01 216 2 gusting 6 17.8
2018-Sep-18 19:56 214 2 gusting 4 17.8
2018-Sep-18 19:51 209 2 gusting 5 17.8
2018-Sep-18 19:46 204 1 gusting 4 17.8
2018-Sep-18 19:41 213 1 gusting 4 17.8
2018-Sep-18 19:36 218 2 gusting 5 17.8
2018-Sep-18 19:31 216 2 gusting 5 17.8
2018-Sep-18 19:26 222 3 gusting 6 18.3
2018-Sep-18 19:21 218 3 gusting 5 17.8
2018-Sep-18 19:16 219 2 gusting 5 18.3
2018-Sep-18 19:11 224 2 gusting 6 18.3
2018-Sep-18 19:06 218 3 gusting 6 18.3
2018-Sep-18 19:01 213 3 gusting 6 18.3
2018-Sep-18 18:56 213 3 gusting 6 18.3
2018-Sep-18 18:51 218 3 gusting 6 18.3
2018-Sep-18 18:46 222 3 gusting 6 18.3
2018-Sep-18 18:41 217 3 gusting 7 18.3
2018-Sep-18 18:36 219 3 gusting 8 18.9
2018-Sep-18 18:31 216 3 gusting 6 18.9
2018-Sep-18 18:26 220 3 gusting 6 18.9
2018-Sep-18 18:21 213 3 gusting 6 18.9
2018-Sep-18 18:16 211 3 gusting 7 18.9
2018-Sep-18 18:11 224 3 gusting 7 18.9
2018-Sep-18 18:06 217 3 gusting 6 18.9
2018-Sep-18 18:01 212 3 gusting 6 18.9
2018-Sep-18 17:56 220 4 gusting 6 18.9
2018-Sep-18 17:51 224 4 gusting 6 18.9
2018-Sep-18 17:46 218 4 gusting 9 19.4
2018-Sep-18 17:41 222 4 gusting 8 19.4
2018-Sep-18 17:37 222 3 gusting 6 19.4
2018-Sep-18 17:34 220 4 gusting 6 19.4
2018-Sep-18 17:21 216 4 gusting 5 19.4
2018-Sep-18 17:16 212 4 gusting 7 19.4
2018-Sep-18 17:11 226 4 gusting 6 20.0
2018-Sep-18 17:06 232 4 gusting 13 20.0
2018-Sep-18 17:01 220 3 gusting 8 20.0
2018-Sep-18 16:56 224 4 gusting 7 20.6
2018-Sep-18 16:51 221 4 gusting 9 20.6
2018-Sep-18 16:46 210 4 gusting 10 20.6
2018-Sep-18 16:41 207 4 gusting 6 20.6
2018-Sep-18 16:36 215 5 gusting 9 20.6
2018-Sep-18 16:31 214 6 gusting 7 20.6
2018-Sep-18 16:26 208 6 gusting 11 20.6
2018-Sep-18 16:21 214 6 gusting 10 21.1
2018-Sep-18 16:16 214 6 gusting 13 21.1
2018-Sep-18 16:11 217 6 gusting 7 21.1
2018-Sep-18 16:06 217 6 gusting 8 21.7
2018-Sep-18 16:01 221 6 gusting 12 21.7
2018-Sep-18 15:56 223 6 gusting 13 21.7
2018-Sep-18 15:51 215 6 gusting 13 21.7
2018-Sep-18 15:46 217 6 gusting 12 21.7
2018-Sep-18 15:41 224 6 gusting 16 22.2
2018-Sep-18 15:36 222 6 gusting 12 22.2
2018-Sep-18 15:31 212 5 gusting 13 22.2
2018-Sep-18 15:26 214 6 gusting 11 22.2
2018-Sep-18 15:21 215 6 gusting 11 22.2
2018-Sep-18 15:16 216 6 gusting 11 22.8
2018-Sep-18 15:11 214 6 gusting 13 22.8
2018-Sep-18 15:06 215 6 gusting 13 22.8
2018-Sep-18 15:01 222 6 gusting 11 22.8
2018-Sep-18 14:56 241 6 gusting 13 22.8
2018-Sep-18 14:51 238 5 gusting 9 23.3
2018-Sep-18 14:46 228 6 gusting 9 23.3
2018-Sep-18 14:41 230 6 gusting 18 23.3
2018-Sep-18 14:36 220 6 gusting 13 23.3
2018-Sep-18 14:31 218 6 gusting 11 23.3
2018-Sep-18 14:26 230 5 gusting 10 23.3
2018-Sep-18 14:21 242 6 gusting 8 23.3
2018-Sep-18 14:16 228 6 gusting 12 23.3
2018-Sep-18 14:11 217 6 gusting 13 23.9
2018-Sep-18 14:06 212 6 gusting 12 23.9
2018-Sep-18 14:01 209 6 gusting 14 23.9
2018-Sep-18 13:56 209 6 gusting 10 23.9
2018-Sep-18 13:51 212 6 gusting 13 23.9
2018-Sep-18 13:46 215 6 gusting 11 23.9
2018-Sep-18 13:41 224 6 gusting 13 23.9
2018-Sep-18 13:36 217 6 gusting 13 23.9
2018-Sep-18 13:31 213 6 gusting 10 23.9
2018-Sep-18 13:26 218 6 gusting 13 23.9
2018-Sep-18 13:21 223 6 gusting 12 23.9
2018-Sep-18 13:16 225 6 gusting 14 23.9
2018-Sep-18 13:11 220 6 gusting 11 23.3
2018-Sep-18 13:06 217 6 gusting 11 23.9
2018-Sep-18 13:01 215 6 gusting 11 23.3
2018-Sep-18 12:56 214 6 gusting 13 23.3
2018-Sep-18 12:51 215 6 gusting 13 23.3
2018-Sep-18 12:46 209 6 gusting 13 23.3
2018-Sep-18 12:41 205 6 gusting 14 23.3
2018-Sep-18 12:36 212 6 gusting 14 23.3
2018-Sep-18 12:31 214 6 gusting 13 23.3
2018-Sep-18 12:26 209 6 gusting 10 23.3
2018-Sep-18 12:21 202 6 gusting 11 23.3
2018-Sep-18 12:16 202 5 gusting 17 23.3
2018-Sep-18 12:11 212 5 gusting 10 23.3
2018-Sep-18 12:06 220 5 gusting 7 23.3
2018-Sep-18 12:01 223 5 gusting 12 22.8
2018-Sep-18 11:56 217 5 gusting 9 22.8
2018-Sep-18 11:51 217 6 gusting 11 22.8
2018-Sep-18 11:46 215 6 gusting 13 22.8
2018-Sep-18 11:41 216 6 gusting 10 22.8
2018-Sep-18 11:36 218 6 gusting 9 22.8
2018-Sep-18 11:31 214 6 gusting 12 22.8
2018-Sep-18 11:26 217 6 gusting 13 22.8
2018-Sep-18 11:21 218 6 gusting 13 22.8
2018-Sep-18 11:16 215 6 gusting 16 22.8
2018-Sep-18 11:11 218 6 gusting 11 22.8
2018-Sep-18 11:06 215 6 gusting 13 22.8
2018-Sep-18 11:01 213 6 gusting 11 22.8
2018-Sep-18 10:56 208 6 gusting 11 22.2
2018-Sep-18 10:51 205 6 gusting 12 22.2
2018-Sep-18 10:46 202 6 gusting 17 22.2
2018-Sep-18 10:41 208 6 gusting 11 22.2
2018-Sep-18 10:36 224 6 gusting 11 22.2
2018-Sep-18 10:31 225 6 gusting 9 22.2
2018-Sep-18 10:26 213 6 gusting 12 22.2
2018-Sep-18 10:21 208 6 gusting 15 22.2
2018-Sep-18 10:16 214 5 gusting 8 22.2
2018-Sep-18 10:11 209 5 gusting 10 22.2
2018-Sep-18 10:06 206 5 gusting 11 22.2
2018-Sep-18 10:01 209 5 gusting 9 22.2
2018-Sep-18 09:56 215 4 gusting 11 22.2
2018-Sep-18 09:51 213 4 gusting 9 22.2
2018-Sep-18 09:46 216 4 gusting 6 21.7
2018-Sep-18 09:41 225 5 gusting 7 21.7
2018-Sep-18 09:36 231 5 gusting 7 21.7
2018-Sep-18 09:31 223 6 gusting 10 21.7
2018-Sep-18 09:26 208 6 gusting 10 21.7
2018-Sep-18 09:21 218 6 gusting 12 21.7
2018-Sep-18 09:16 218 5 gusting 10 21.7
2018-Sep-18 09:11 212 4 gusting 9 21.1
2018-Sep-18 09:06 222 4 gusting 7 21.1
2018-Sep-18 08:56 209 5 gusting 12 21.1
2018-Sep-18 08:51 210 4 gusting 8 21.1
2018-Sep-18 08:46 218 4 gusting 7 20.6
2018-Sep-18 08:41 215 3 gusting 8 20.6
2018-Sep-18 08:36 196 3 gusting 8 20.6
2018-Sep-18 08:31 191 3 gusting 6 20.6
2018-Sep-18 08:26 215 3 gusting 7 20.0
2018-Sep-18 08:21 205 3 gusting 6 20.0
2018-Sep-18 08:16 191 3 gusting 6 19.4
2018-Sep-18 08:11 215 3 gusting 6 19.4
2018-Sep-18 08:06 218 2 gusting 7 18.9
2018-Sep-18 08:01 206 2 gusting 4 18.9
2018-Sep-18 07:56 205 3 gusting 5 18.9
2018-Sep-18 07:51 200 3 gusting 6 18.3
2018-Sep-18 07:46 193 2 gusting 8 18.3
2018-Sep-18 07:41 195 2 gusting 5 18.3
2018-Sep-18 07:36 195 2 gusting 6 18.3
2018-Sep-18 07:31 195 2 gusting 6 17.8
2018-Sep-18 07:26 197 2 gusting 6 17.8
2018-Sep-18 07:21 197 3 gusting 6 17.8
2018-Sep-18 07:16 191 3 gusting 7 17.8
2018-Sep-18 07:11 184 2 gusting 8 17.8
2018-Sep-18 07:06 193 2 gusting 5 17.8
2018-Sep-18 07:01 208 3 gusting 6 17.8
2018-Sep-18 06:56 194 2 gusting 6 17.8
2018-Sep-18 06:51 185 2 gusting 6 17.8
2018-Sep-18 06:46 196 2 gusting 4 17.2
2018-Sep-18 06:41 198 2 gusting 5 17.8
2018-Sep-18 06:36 180 2 gusting 6 17.2
2018-Sep-18 06:31 174 1 gusting 5 17.2
2018-Sep-18 06:26 183 1 gusting 3 16.7
2018-Sep-18 06:21 187 1 gusting 4 16.7
2018-Sep-18 06:16 182 1 gusting 3 16.7
2018-Sep-18 06:11 180 1 gusting 3 16.7
2018-Sep-18 06:06 171 0 gusting 2 16.1
2018-Sep-18 06:01 164 0 gusting 3 16.1
2018-Sep-18 05:56 154 0 gusting 3 15.6
2018-Sep-18 05:51 154 15.0
2018-Sep-18 05:41 166 0 gusting 1 15.0
2018-Sep-18 05:36 159 0 gusting 0 15.0
2018-Sep-18 05:31 151 0 gusting 1 15.0
2018-Sep-18 05:26 155 0 gusting 1 15.0
2018-Sep-18 05:21 167 0 gusting 2 15.0
2018-Sep-18 05:16 160 0 gusting 2 15.0
2018-Sep-18 05:11 160 15.0
2018-Sep-18 05:06 159 14.4
2018-Sep-18 05:01 164 0 gusting 1 14.4
2018-Sep-18 04:56 169 0 gusting 1 14.4
2018-Sep-18 04:51 160 0 gusting 1 14.4
2018-Sep-18 04:46 155 0 gusting 1 14.4
2018-Sep-18 04:41 156 0 gusting 1 14.4
2018-Sep-18 04:36 170 0 gusting 2 14.4
2018-Sep-18 04:31 171 0 gusting 2 14.4
2018-Sep-18 04:26 161 0 gusting 2 14.4
2018-Sep-18 04:21 163 0 gusting 2 14.4
2018-Sep-18 04:16 179 0 gusting 3 14.4
2018-Sep-18 04:11 169 0 gusting 2 14.4
2018-Sep-18 04:06 164 0 gusting 1 14.4
2018-Sep-18 04:01 163 0 gusting 2 13.9
2018-Sep-18 03:56 160 0 gusting 1 13.9
2018-Sep-18 03:51 163 0 gusting 1 13.9
2018-Sep-18 03:46 164 0 gusting 1 13.9
2018-Sep-18 03:41 161 0 gusting 1 13.9
2018-Sep-18 03:36 159 0 gusting 2 13.9
2018-Sep-18 03:31 168 0 gusting 1 13.9
2018-Sep-18 03:26 167 0 gusting 1 13.9
2018-Sep-18 03:21 156 0 gusting 2 13.9
2018-Sep-18 03:16 161 0 gusting 2 13.9
2018-Sep-18 03:11 173 0 gusting 2 13.9
2018-Sep-18 03:06 170 0 gusting 1 13.9
2018-Sep-18 03:01 158 0 gusting 1 13.9
2018-Sep-18 02:56 166 0 gusting 1 13.9
2018-Sep-18 02:51 171 13.9
2018-Sep-18 02:46 167 13.9
2018-Sep-18 02:41 164 13.9
2018-Sep-18 02:36 163 13.9
2018-Sep-18 02:31 165 13.9
2018-Sep-18 02:26 165 13.9
2018-Sep-18 02:21 168 13.9
2018-Sep-18 02:11 166 13.3
2018-Sep-18 02:06 171 13.9
2018-Sep-18 02:01 163 13.3
2018-Sep-18 01:56 162 13.9
2018-Sep-18 01:51 161 13.9
2018-Sep-18 01:46 156 13.9
2018-Sep-18 01:41 157 13.9
2018-Sep-18 01:36 167 13.9
2018-Sep-18 01:31 156 13.9
2018-Sep-18 01:26 142 14.4
2018-Sep-18 01:21 158 14.4
2018-Sep-18 01:16 164 0 gusting 1 14.4
2018-Sep-18 01:11 160 0 gusting 1 14.4
2018-Sep-18 01:06 162 0 gusting 1 14.4
2018-Sep-18 01:01 166 0 gusting 1 15.0
2018-Sep-18 00:56 172 0 gusting 1 15.0
2018-Sep-18 00:51 172 1 gusting 3 15.0
2018-Sep-18 00:46 162 0 gusting 3 15.0
2018-Sep-18 00:41 160 0 gusting 2 15.0
2018-Sep-18 00:36 165 0 gusting 1 14.4
2018-Sep-18 00:31 170 0 gusting 1 14.4
2018-Sep-18 00:21 163 0 gusting 2 14.4
2018-Sep-18 00:16 164 0 gusting 2 14.4
2018-Sep-18 00:11 162 15.0
2018-Sep-18 00:06 164 15.0
2018-Sep-18 00:01 159 15.0
2018-Sep-17 23:56 162 15.0
2018-Sep-17 23:51 166 0 gusting 1 15.0
2018-Sep-17 23:46 165 0 gusting 1 15.0
2018-Sep-17 23:41 165 15.0
2018-Sep-17 23:36 165 0 gusting 2 15.0
2018-Sep-17 23:31 170 0 gusting 2 15.6
2018-Sep-17 23:26 165 0 gusting 2 15.6
2018-Sep-17 23:21 146 0 gusting 3 15.6
2018-Sep-17 23:16 157 0 gusting 2 15.6
2018-Sep-17 23:11 166 0 gusting 1 15.6
2018-Sep-17 23:06 158 1 gusting 2 15.6
2018-Sep-17 23:01 162 1 gusting 2 15.6
2018-Sep-17 22:56 161 1 gusting 2 15.6
2018-Sep-17 22:51 165 1 gusting 3 15.6
2018-Sep-17 22:46 168 1 gusting 3 15.6
2018-Sep-17 22:41 170 0 gusting 3 15.0
2018-Sep-17 22:36 178 0 gusting 2 15.0
2018-Sep-17 22:31 171 0 gusting 2 15.0
2018-Sep-17 22:26 170 14.4
2018-Sep-17 22:21 170 14.4
2018-Sep-17 22:16 159 14.4
2018-Sep-17 22:11 142 14.4
2018-Sep-17 22:06 147 14.4
2018-Sep-17 22:01 164 14.4
2018-Sep-17 21:56 166 14.4
2018-Sep-17 21:51 166 14.4
2018-Sep-17 21:46 162 14.4
2018-Sep-17 21:41 161 14.4
2018-Sep-17 21:36 165 14.4
2018-Sep-17 21:31 162 14.4
2018-Sep-17 21:26 152 14.4
2018-Sep-17 21:21 152 14.4
2018-Sep-17 21:16 158 14.4
2018-Sep-17 21:11 158 14.4
2018-Sep-17 21:06 158 14.4
2018-Sep-17 21:01 158 14.4
2018-Sep-17 20:56 168 15.0
2018-Sep-17 20:51 171 15.0
2018-Sep-17 20:46 162 15.6
2018-Sep-17 20:41 159 15.6
2018-Sep-17 20:36 158 15.6
2018-Sep-17 20:31 158 16.1
2018-Sep-17 20:26 163 16.1
2018-Sep-17 20:21 166 16.1
2018-Sep-17 20:16 165 15.6
2018-Sep-17 20:11 151 15.6
2018-Sep-17 20:06 155 15.6
2018-Sep-17 20:01 166 15.6
2018-Sep-17 19:56 161 15.0
2018-Sep-17 19:51 161 15.0
2018-Sep-17 19:46 152 15.0
2018-Sep-17 19:41 152 15.0
2018-Sep-17 19:36 158 15.0
2018-Sep-17 19:31 158 15.6
2018-Sep-17 19:26 158 15.6
2018-Sep-17 19:21 161 15.6
2018-Sep-17 19:16 172 16.1
2018-Sep-17 19:11 179 16.1
2018-Sep-17 19:06 168 16.1
2018-Sep-17 18:56 158 16.1
2018-Sep-17 18:51 158 16.7
2018-Sep-17 18:46 158 16.7
2018-Sep-17 18:41 162 16.7
2018-Sep-17 18:36 162 17.2
2018-Sep-17 18:31 159 17.2
2018-Sep-17 18:26 165 17.8
2018-Sep-17 18:21 165 17.8
2018-Sep-17 18:17 164 17.8
2018-Sep-17 18:14 169 17.8
2018-Sep-17 18:06 165 18.3
2018-Sep-17 18:01 163 18.3
2018-Sep-17 17:51 142 18.9
2018-Sep-17 17:46 148 19.4
2018-Sep-17 17:41 172 19.4
2018-Sep-17 17:36 172 20.0
2018-Sep-17 17:33 166 20.6
2018-Sep-17 17:28 169 20.6
2018-Sep-17 17:16 139 21.7
2018-Sep-17 17:11 143 21.7
2018-Sep-17 17:06 168 0 gusting 0 21.7
2018-Sep-17 17:01 173 0 gusting 2 22.2
2018-Sep-17 16:56 173 0 gusting 2 22.2
2018-Sep-17 16:46 163 0 gusting 2 22.2
2018-Sep-17 16:41 159 0 gusting 2 22.8
2018-Sep-17 16:36 180 0 gusting 2 22.8
2018-Sep-17 16:31 188 1 gusting 2 22.8
2018-Sep-17 16:26 169 1 gusting 4 22.8
2018-Sep-17 16:21 187 1 gusting 3 22.8
2018-Sep-17 16:16 191 0 gusting 4 22.8
2018-Sep-17 16:11 184 0 gusting 2 23.3
2018-Sep-17 16:06 189 0 gusting 2 23.3
2018-Sep-17 16:01 187 1 gusting 2 23.3
2018-Sep-17 15:56 191 1 gusting 4 23.3
2018-Sep-17 15:51 188 1 gusting 3 23.3
2018-Sep-17 15:46 183 1 gusting 4 23.3
2018-Sep-17 15:42 182 1 gusting 2 23.3
2018-Sep-17 15:31 207 2 gusting 6 23.3
2018-Sep-17 15:26 198 2 gusting 6 23.3
2018-Sep-17 15:21 197 2 gusting 5 23.3
2018-Sep-17 15:16 201 2 gusting 5 23.3
2018-Sep-17 15:11 202 2 gusting 5 23.3
2018-Sep-17 15:06 205 3 gusting 6 23.3
2018-Sep-17 15:01 197 3 gusting 6 23.3
2018-Sep-17 14:56 197 3 gusting 5 23.3
2018-Sep-17 14:51 203 2 gusting 6 23.3
2018-Sep-17 14:46 190 2 gusting 6 23.3
2018-Sep-17 14:41 173 2 gusting 6 23.3
2018-Sep-17 14:36 178 3 gusting 6 23.3
2018-Sep-17 14:31 190 3 gusting 5 23.3
2018-Sep-17 14:26 194 3 gusting 6 23.3
2018-Sep-17 14:21 190 3 gusting 8 23.3
2018-Sep-17 14:16 197 3 gusting 5 23.3
2018-Sep-17 14:11 205 4 gusting 7 23.3
2018-Sep-17 14:06 199 3 gusting 7 23.3
2018-Sep-17 14:01 187 3 gusting 7 23.3
2018-Sep-17 13:56 190 3 gusting 6 23.3
2018-Sep-17 13:51 191 3 gusting 7 23.3
2018-Sep-17 13:46 185 3 gusting 8 23.3
2018-Sep-17 13:41 185 4 gusting 6 22.8
2018-Sep-17 13:36 194 4 gusting 7 22.8
2018-Sep-17 13:31 189 4 gusting 6 22.8
2018-Sep-17 13:26 184 4 gusting 7 22.8
2018-Sep-17 13:21 193 3 gusting 8 22.2
2018-Sep-17 13:17 177 3 gusting 7 22.2
2018-Sep-17 13:13 174 3 gusting 6 22.2
2018-Sep-17 13:01 187 3 gusting 6 22.2
2018-Sep-17 12:56 178 3 gusting 6 22.2
2018-Sep-17 12:51 169 3 gusting 7 22.2
2018-Sep-17 12:46 168 3 gusting 7 22.2
2018-Sep-17 12:41 174 3 gusting 5 22.2
2018-Sep-17 12:36 195 3 gusting 5 22.2
2018-Sep-17 12:31 192 3 gusting 6 22.2
2018-Sep-17 12:26 192 3 gusting 6 22.2
2018-Sep-17 12:21 192 2 gusting 6 22.2
2018-Sep-17 12:16 194 2 gusting 6 22.2
2018-Sep-17 12:11 202 2 gusting 5 21.7
2018-Sep-17 12:06 197 2 gusting 6 21.7
2018-Sep-17 12:01 190 2 gusting 6 21.7
2018-Sep-17 11:56 193 2 gusting 5 21.7
2018-Sep-17 11:51 191 2 gusting 6 21.7
2018-Sep-17 11:46 200 2 gusting 4 21.7
2018-Sep-17 11:41 210 2 gusting 6 21.1
2018-Sep-17 11:37 191 2 gusting 7 21.1
2018-Sep-17 11:26 209 2 gusting 6 21.1
2018-Sep-17 11:21 209 1 gusting 4 21.1
2018-Sep-17 11:16 195 2 gusting 4 21.1
2018-Sep-17 11:11 192 2 gusting 4 20.6
2018-Sep-17 11:06 196 2 gusting 7 20.6
2018-Sep-17 11:01 192 2 gusting 4 20.6
2018-Sep-17 10:56 197 2 gusting 4 20.6
2018-Sep-17 10:51 204 2 gusting 5 20.0
2018-Sep-17 10:46 199 2 gusting 4 20.0
2018-Sep-17 10:41 204 1 gusting 6 20.0
2018-Sep-17 10:36 213 1 gusting 4 20.0
2018-Sep-17 10:31 206 2 gusting 5 19.4
2018-Sep-17 10:26 206 2 gusting 6 19.4
2018-Sep-17 10:21 216 3 gusting 4 19.4
2018-Sep-17 10:16 220 3 gusting 5 19.4
2018-Sep-17 10:11 216 3 gusting 5 19.4
2018-Sep-17 10:06 199 3 gusting 6 18.9
2018-Sep-17 10:01 185 2 gusting 7 18.9
2018-Sep-17 09:56 187 3 gusting 4 18.9
2018-Sep-17 09:51 184 3 gusting 6 18.9
2018-Sep-17 09:46 177 2 gusting 6 18.9
2018-Sep-17 09:41 195 2 gusting 6 18.9
2018-Sep-17 09:36 212 2 gusting 6 18.3
2018-Sep-17 09:31 195 1 gusting 6 18.9
2018-Sep-17 09:26 191 1 gusting 4 18.3
2018-Sep-17 09:21 194 2 gusting 3 18.3
2018-Sep-17 09:16 183 2 gusting 5 18.3
2018-Sep-17 09:11 194 2 gusting 5 18.3
2018-Sep-17 09:06 209 2 gusting 5 17.8
2018-Sep-17 09:01 215 2 gusting 5 17.8